Regional Weather Roundup
Issued by NWS Wakefield, VA

Home | Current Version | Previous Version | Text Only | Print | Product List | Glossary On
Versions: 1 2 3 4 5 6 7 8 9 10 11 12 13 14 15 16 17 18 19 20 21 22 23 24 25 26 27
000
ASUS41 KAKQ 221315
RWRAKQ

REGIONAL WEATHER ROUNDUP
NATIONAL WEATHER SERVICE WAKEFIELD VA
900 AM EDT TUE AUG 22 2017

Note: "fair" indicates few or no clouds below 12,000 feet with no
significant weather and/or obstructions to visibility. * = Denotes
station may not report precipitation (e.g., rain,snow,etc.),
thunder or fog.

VAZ042-051-052>054-056-221400-
NORTHERN VIRGINIA

CITY           SKY/WX    TMP DP  RH WIND       PRES   REMARKS
WASH NATIONAL  MOSUNNY   79  75  87 S10       30.04F
DULLES         MOSUNNY   77  73  87 SW7       30.04F
FORT BELVOIR   SUNNY     79  72  79 S6        30.04F
QUANTICO       MOSUNNY   79  75  87 SW7       30.05F
FREDERICKSBRG* SUNNY     78  76  95 S5        30.04F
STAFFORD*      SUNNY     76  75  99 SW5       30.09F
WARRENTON      SUNNY     77  71  80 SW3       30.04F
CULPEPER*      MOSUNNY   77  73  86 SW5       30.05F
MANASSAS*      MOSUNNY   76  72  87 S3        30.05F
LEESBURG*      SUNNY     75  73  94 CALM      30.05F
WINCHESTER     SUNNY     77  68  73 SW10      30.05F
FRONT ROYAL*   SUNNY     77  72  83 SW6       30.05F
LURAY*         SUNNY     73  72  94 SW3       30.07F
$$

VAZ048-049-060>072-079>083-221400-
CENTRAL AND SOUTH CENTRAL VIRGINIA

CITY           SKY/WX    TMP DP  RH WIND       PRES   REMARKS
RICHMOND       MOSUNNY   79  74  84 SW9       30.08F
CHESTERFIELD*  FAIR      79  74  84 SW6       30.09F
PETERSBURG*    SUNNY     78  73  85 SW5       30.10F
HANOVER        SUNNY     80  72  76 MISG      30.09F
TAPPAHANNOCK*  SUNNY     80  74  81 SE7       30.08F
QUINTON*       FAIR     N/A N/A N/A S6        30.08F
CHARLOTTSVILLE SUNNY     78  72  81 S8        30.06F
GORDONSVILLE*  SUNNY     74  73  93 SW7       30.06F
ORANGE*        SUNNY     75  72  88 CALM      30.06F
LOUISA*        SUNNY     75  70  83 SW5       30.07F
BUMPASS*       FAIR      77  75  93 SW3       30.07F
FARMVILLE*     CLOUDY    76  73  90 SW7       30.08F
CREWE*         FAIR      78  74  87 SW5       30.09F
FORT PICKETT*  FAIR     N/A N/A N/A SW8       30.10F
CHASE CITY*    FAIR      77  77  99 CALM      30.12S
CLARKSVILLE*   FAIR      77  77 100 SW5       30.11F
SOUTH HILL*    SUNNY     77  76  98 S3        30.17S
LAWRENCEVILLE* FAIR      77  75  91 W3        30.11S
EMPORIA*         N/A     77  73  88 S3        30.12S
$$

VAZ088>098-221400-
SOUTHEAST VIRGINIA

CITY           SKY/WX    TMP DP  RH WIND       PRES   REMARKS
NORFOLK        SUNNY     80  76  87 SW9       30.10F
VIRGINIA BEACH MOSUNNY   78  74  87 SW7       30.10F
NORFOLK NAVAL  MOSUNNY   81  75  82 S6        30.11F
WEST POINT*    SUNNY     80  74  83 S6        30.10F
SALUDA*        FAIR      80  77  89 S7        30.08S
NEWPORT NEWS   SUNNY     80  75  84 SW8       30.09F
LANGLEY AFB    MOSUNNY   81  76  84 SW10      30.09F
FORT EUSTIS    NOT AVBL
WILLIAMSBURG*  SUNNY     81  75  83 CALM      30.10F
HR EXEC AP*    PTSUNNY   77  73  88 SW6       30.09S
FRANKLIN*      CLOUDY    75  73  94 SW5       30.11S
US460-WAKEFLD  SUNNY     79  76  90 S3        30.10F
$$

VAZ020-022-025-037-045-221400-
WEST CENTRAL AND SOUTHWEST VIRGINIA

CITY           SKY/WX    TMP DP  RH WIND       PRES   REMARKS
STAUNTON*      SUNNY     76  70  82 SW5       30.11F
WAYNESBORO*    SUNNY     75  71  87 CALM      30.12F
HOT SPRINGS VA SUNNY     70  61  73 W12       30.24F
LYNCHBURG      SUNNY     74  70  87 S5        30.11F
DANVILLE       SUNNY     74  74 100 S5        30.12F
SOUTH BOSTON*  FAIR      77  76  95 SW5       30.11F
MARTINSVILLE   SUNNY     74  70  88 CALM      30.15S
ROANOKE        PTSUNNY   74  71  91 W5        30.14F
BLACKSBURG     PTSUNNY   70  70  99 CALM      30.21S
DUBLIN*        MOSUNNY   69  69 100 CALM      30.19F FOG
MARION*        SUNNY     73  55  53 W7        30.23S
HILLSVILLE*    SUNNY     70  64  83 CALM      30.21S
RICHLANDS*     FAIR      73  62  69 SW6       30.21S
WISE*          SUNNY     73  70  88 SW7       30.22R
ABINGDON*      MOSUNNY   75  70  86 CALM      30.19S
$$

MDZ021>025-VAZ099-100-221400-
SOUTHERN MARYLAND AND THE DELMARVA PENINSULA

CITY           SKY/WX    TMP DP  RH WIND       PRES   REMARKS
PATUXENT RIVER MOSUNNY   79  75  87 SW10      30.05F
BAY BRIDGE APT SUNNY     81  73  78 SW7       30.04F
LEONARDTOWN    SUNNY     79  72  78 S7        30.07F
DOVER          MOSUNNY   81  75  83 S14       30.02F
GEORGETOWN     MOSUNNY   82  76  81 SW13      30.06F
EASTON         NOT AVBL
CAMBRIDGE      SUNNY     82  75  78 VRB7      30.05F
SALISBURY      SUNNY     81  78  91 SW8       30.07F
OCEAN CITY     MOSUNNY   82  77  84 SW10      30.08F
WALLOPS ISLAND MOSUNNY   82  77  84 SW12      30.09F
ACCOMACK*      PTSUNNY   81  77  88 SW7       30.09S
$$

NCZ012>017-030>032-221400-
NORTH CENTRAL AND EASTERN NORTH CAROLINA

CITY           SKY/WX    TMP DP  RH WIND       PRES   REMARKS
ROANOKE RAPIDS CLOUDY    73  73 100 SW6       30.12S FOG
RALEIGH        MOSUNNY   80  75  84 SW6       30.13S
ELIZABETH CITY SUNNY     81  78  91 SW7       30.11F
AHOSKIE*         N/A     75  74  99 CALM      30.12S FOG
EDENTON*       CLOUDY    79  77  92 CALM      30.12F FOG
CURRITUCK*     MOSUNNY   79  76  91 CALM      30.12F
KILL DEVIL HLS MOSUNNY   81  75  83 CALM      30.11F
MANTEO         SUNNY     80  76  87 CALM      30.13S
CAPE HATTERAS  SUNNY     83  77  82 S5        30.12F
TARBORO*       NOT AVBL
GOLDSBORO      PTSUNNY   77  77 100 SW2       30.11S FOG
WASHINGTON     MOSUNNY   80  76  90 CALM      30.12F
GREENVILLE     CLOUDY    77  77 100 CALM      30.13S
NEW BERN       SUNNY     82  78  88 CALM      30.13S
WILMINGTON     MOSUNNY   83  77  82 CALM      30.11S
$$

VAZ048-221400-
ELSEWHERE

CITY           SKY/WX    TMP DP  RH WIND       PRES   REMARKS
HARRISBURG PA  MOSUNNY   76  72  87 SE3       30.01F FOG
BALTIMORE      MOSUNNY   78  75  90 SW8       30.03F
ANNAPOLIS      NOT AVBL
ANDREWS AFB    SUNNY     79  72  80 SW12      30.04F
PHILADELPHIA   CLOUDY    79  73  82 SW10      30.03F
HENDERSON NC   SUNNY     74  71  89 SW3       30.12F
GREENSBORO     MOSUNNY   77  74  90 SW6       30.13F
ROCKY MOUNT    CLOUDY    76  76 100 SW3       30.12S FOG
$$

VAZ100-221400-
MARINE

STATION/POSITION TIME  TEMP    WIND        PRES    WAVE   SWELL
                       AIR SEA DIR/SP/G            HT/PER HT/PER
                 (UTC) (F)     (DEG/KT/KT) (MB)    (FT/S) (FT/S)
BRANDYWINE LGT   1242   78     220/ 15/ 16 1017.9F
CAPE MAY NJ      1248   78 77  210/  9/ 14 1017.2F
LEWES DE         1242   81 76  230/  4/  9 1017.6F
15NM E FENWICK I 1150   79 78  200/ 16/ 17 1018.8    2/ 4   2/ 9
OCEAN-CITY-INLET 1242   80 77  240/ 13/ 17 1018.9F
WACHAPREAGUE VA  1242   82 81  220/  9/ 13 1018.8F
THOMAS POINT MD  1300   79 81  210/  7/  8   N/A
GOOSES REEF MD   1250   80     220/ 14/ 17 1017.7F
COVE POINT MD    1242   80     240/ 12/ 17 1018.1F
SOLOMONS ISLAND  1242   80 82  220/ 15/ 17   N/A
BISHOPS HEAD MD  1242   80 80  210/ 13/ 15 1018.2F
PINEY POINT MD   1242          240/  3/  7   N/A
POTOMAC MD       1250   80     230/ 12/ 14 1017.5F
CAMBRIDGE MD     1242   83 82              1018.5F
LEWISETTA VA     1242   80 83  240/  9/ 11 1018.0F
RAPPAHANNOCK LGT 1242          200/ 13/ 15 1019.4F
STINGRAY PT      1250   81     250/ 10/ 14 1019.0F
YORK RVR RNG VA  1242   80     220/  9/ 10 1019.2F
YORKTOWN VA      1242   80 83  230/  6/  8 1018.4F
JAMESTOWN VA     1250          220/  6/  8   N/A
DOMINION TERM VA 1242   77     220/  6/  7 1019.4F
KIPTOPEKE VA     1242      81  210/  7/  9   N/A
CHES BAY BRIDGE  1242   79 79  220/  9/ 10 1019.1F
CAPE HENRY VA    1242   79     190/  7/  8   N/A
WILLOUBY STN VA  1242   79     220/  8/  9 1019.2F
S CRANEY ISL VA  1242   78     200/  6/  9 1019.2F
CAPE HENRY BUOY  1230      80                N/A     2/ 9
1ST LANDING BUOY 1250   79                 1019.2F
64NM E OF VA BCH 1250   79 79  200/  6/  8 1020.2F   2/ 9   2/ 9
DUCK PIER NC     1242   80 75  220/  8/  9 1019.4F
44100 DUCK FRF   1205      81                N/A     2/ 9   2/11
44056 DUCK FRF   1300      80                N/A     2/ 8   2/13
OREGON INLET NC  1242   80 81  240/  3/  5 1019.9F
HATTERAS NC      1242   82 82  150/  4/  5 1020.0F
DIAMOND SHLS NC  1250   82 87  260/  2/  4 1019.8F   2/11   2/11
CAPE LOOKOUT NC  1200   82     150/  2/  3 1019.4F
$$




USA.gov is the U.S. government's official web portal to all federal, state and local government web resources and services.